This demonstration page uses our WeatherBlox Daily Observations layout. Learn more.

Left ArrowRight Arrow

Hourly Observations for September 25, 2022

Temp ( °F °C ) Dew Point ( °F °C ) Humidity (%) Winds ( mph kmh ) Pressure ( in mb ) Visibility ( mi km ) Precip ( " mm )
12:53 am 00:53 Mostly Clear 83 28.3 62 16.7 49 49 S 6 9 29.91 1013 10 16 0.00 0.00
1:53 am 01:53 Mostly Clear 83 28.3 62 16.7 49 49 S 7 11 29.90 1013 10 16 0.00 0.00
2:53 am 02:53 Mostly Clear 82 27.8 63 17.2 53 53 S 3 6 29.91 1013 10 16 0.00 0.00
3:53 am 03:53 Mostly Cloudy 82 27.8 66 18.9 58 58 S 7 11 29.90 1012 10 16 0.00 0.00
4:53 am 04:53 Mostly Cloudy 80 26.7 66 18.9 62 62 SW 5 7 29.91 1013 10 16 0.00 0.00
5:53 am 05:53 Mostly Cloudy 79 26.1 67 19.4 67 67 WSW 5 7 29.92 1013 10 16 0.00 0.00
6:53 am 06:53 Mostly Cloudy 79 26.1 67 19.4 67 67 WSW 3 6 29.94 1014 10 16 0.00 0.00
7:53 am 07:53 Mostly Cloudy 79 26.1 67 19.4 67 67 SSW 3 6 29.95 1014 8 13 0.00 0.00
8:53 am 08:53 Mostly Cloudy 80 26.7 68 20 67 67 SSW 5 7 29.96 1015 10 16 0.00 0.00
9:53 am 09:53 Partly Cloudy 83 28.3 70 21.1 65 65 WSW 7 11 29.97 1015 10 16 0.00 0.00
10:53 am 10:53 Mostly Cloudy 86 30 70 21.1 59 59 Calm 29.98 1015 10 16 0.00 0.00
11:53 am 11:53 Mostly Cloudy 88 31.1 70 21.1 55 55 VRB 5 7 29.97 1015 10 16 0.00 0.00
12:53 pm 12:53 Partly Cloudy 93 33.9 69 20.6 46 46 VRB 6 9 29.95 1014 10 16 0.00 0.00
1:53 pm 13:53 Partly Cloudy 95 35 66 18.9 39 39 VRB 3 6 29.93 1013 10 16 0.00 0.00
2:53 pm 14:53 Partly Cloudy 95 35 65 18.3 37 37 NNW 6 9 29.90 1013 10 16 0.00 0.00
3:53 pm 15:53 Partly Cloudy 97 36.1 63 17.2 33 33 N 6 9 29.88 1012 10 16 0.00 0.00
4:23 pm 16:23 Mostly Cloudy with Thunderstorms 96 35.6 63 17.2 34 34 N 5 7 29.87 1012 10 16 0.00 0.00
4:39 pm 16:39 Windy with Storms Likely 90 32.2 61 16.1 38 38 N 24 39 29.89 1012 10 16 0.01 0.13
4:53 pm 16:53 Mostly Cloudy with Thunderstorms 83 28.3 62 16.7 49 49 ENE 22 35 29.90 1012 10 16 0.01 0.13
5:03 pm 17:03 Mostly Cloudy with Thunderstorms 82 27.8 65 18.3 56 56 ESE 12 19 29.89 1012 9 14 0.01 0.13
5:23 pm 17:23 Mostly Cloudy with Thunderstorms 81 27.2 64 17.8 57 57 SSE 14 22 29.90 1012 10 16 0.01 0.13
5:42 pm 17:42 Mostly Cloudy 83 28.3 65 18.3 55 55 SE 6 9 29.88 1012 10 16 0.01 0.13
5:53 pm 17:53 Mostly Cloudy 84 28.9 66 18.9 55 55 SSE 6 9 29.88 1012 10 16 0.01 0.13
6:53 pm 18:53 Mostly Cloudy 79 26.1 71 21.7 77 77 ENE 5 7 29.90 1013 10 16 0.01 0.13
7:53 pm 19:53 Partly Cloudy 80 26.7 72 22.2 76 76 VRB 7 11 29.93 1014 10 16 0.00 0.00
8:53 pm 20:53 Partly Cloudy 79 26.1 71 21.7 77 77 N 5 7 29.96 1015 10 16 0.00 0.00
9:53 pm 21:53 Mostly Clear 80 26.7 58 14.4 47 47 N 6 9 29.98 1015 10 16 0.00 0.00
10:53 pm 22:53 Mostly Clear 77 25 58 14.4 52 52 N 3 6 30.00 1016 10 16 0.00 0.00
11:53 pm 23:53 Mostly Clear 74 23.3 55 12.8 52 52 NNE 7 11 30.00 1016 10 16 0.00 0.00

Powered by AerisWeather